sat.trackr.live / text

‹ back to catalog

TIANLIAN 1-05

NORAD 49011 · 2021-063A

PAYLOAD ACTIVE UNKNOWN

§ Identity

Operator
Country
PRC
Launch date
2021-07-06
Launch site
XICLF
Launch vehicle
Mass (kg)
RCS (m²)

Purposes: comms

External: N2YO · Heavens-Above · Gunter

§ Orbital elements

Epoch: 2026-09-19T01:39:18.377280Z

Period
1,436.06 min
Inclination
1.8289°
Eccentricity
0.0003441
Mean motion
1.00274323 rev/d
Perigee alt
35,771.4 km
Apogee alt
35,800.4 km
Semi-major
42,164.0 km
B*
0.0000e+0
RAAN
79.7356°
Arg perigee
138.5223°
Mean anomaly
181.3927°
Rev number
1,901

§ Raw data

TIANLIAN 1-051 49011U 21063A   26262.06896270  .00000104  00000+0  00000+0 0  99962 49011   1.8289  79.7356 0003441 138.5223 181.3927  1.00274323 19012

JSON: /api/v1/satellites/49011 · /tle

For live sub-satellite position, see the globe view (requires WebGL).

§ Visibility from observer

Set your observer location to see the next 7 days of passes ≥ 10°. The values pass through the URL so the page stays shareable.

No JS? Fill the form by hand. The geolocation button needs JavaScript.